Weather History for Sturgis, MI

Change the Weather History Date:

Friday, March 29, 2013

  Actual Average (KHAI) Record (KHAI)
Temperature  
Mean Temperature 38 °F -  
Max Temperature 51 °F 53 °F 79 °F (1963)
Min Temperature 24 °F 34 °F 14 °F (1970)
Degree Days  
Heating Degree Days 28    
Moisture  
Dew Point 20 °F    
Average Humidity 55    
Maximum Humidity 86    
Minimum Humidity 26    
Precipitation  
Precipitation 0.00 in - - ()
Sea Level Pressure  
Sea Level Pressure 30.26 in    
Wind  
Wind Speed 2 mph (NW)    
Max Wind Speed 13 mph    
Max Gust Speed 20 mph    
Visibility 10 miles    
Events      
Averages and records for this station are not official NWS values.
T = Trace of Precipitation, MM = Missing Value Source: NWS Daily Summary

Daily Weather History Graph

Daily Weather History Graph

Search for Another Location

Airport:

Trip Planner

Search our weather history database for the weather conditions in past years. The results will help you decide how hot, cold, wet, or windy it might be!

Date:

Astronomy

Mar. 29, 2013 Rise Set
Actual Time 7:29 AM EDT 8:04 PM EDT
Civil Twilight 7:01 AM EDT 8:32 PM EDT
Nautical Twilight 6:28 AM EDT 9:05 PM EDT
Astronomical Twilight 5:54 AM EDT 9:39 PM EDT
Moon 11:06 PM EDT (3/29) 8:35 AM EDT (3/29)
Length of Visible Light 13h 30m
Length of Day
12h 34m
Waning Gibbous, 93% of the Moon is Illuminated
Mar 29
Waning Gibbous
Apr 3
Last Quarter
Apr 10
New
Apr 18
First Quarter
Apr 25
Full

Hourly Weather History & Observations

Time (EDT) Temp. Windchill Dew Point Humidity Pressure Visibility Wind Dir Wind Speed Gust Speed Precip Events Conditions
12:15 AM 30.2 °F - 21.2 °F 69% 30.29 in 10.0 mi Calm Calm - N/A   Clear
12:34 AM 28.4 °F - 21.2 °F 74% 30.28 in 10.0 mi Calm Calm - N/A   Clear
12:55 AM 28.4 °F - 21.2 °F 74% 30.28 in 10.0 mi Calm Calm - N/A   Clear
1:15 AM 28.4 °F - 21.2 °F 74% 30.29 in 10.0 mi Calm Calm - N/A   Clear
1:34 AM 28.4 °F - 21.2 °F 74% 30.29 in 10.0 mi Calm Calm - N/A   Clear
1:55 AM 28.4 °F - 21.2 °F 74% 30.29 in 10.0 mi Calm Calm - N/A   Clear
2:15 AM 28.4 °F - 21.2 °F 74% 30.29 in 10.0 mi Calm Calm - N/A   Clear
2:34 AM 28.4 °F - 21.2 °F 74% 30.29 in 10.0 mi Calm Calm - N/A   Clear
2:55 AM 28.4 °F - 23.0 °F 80% 30.29 in 10.0 mi Calm Calm - N/A   Clear
3:15 AM 26.6 °F - 21.2 °F 80% 30.29 in 10.0 mi Calm Calm - N/A   Clear
3:34 AM 28.4 °F - 21.2 °F 74% 30.29 in 10.0 mi Calm Calm - N/A   Clear
3:55 AM 26.6 °F - 21.2 °F 80% 30.28 in 10.0 mi Calm Calm - N/A   Clear
4:14 AM 26.6 °F - 21.2 °F 80% 30.28 in 10.0 mi Calm Calm - N/A   Clear
4:35 AM 26.6 °F - 21.2 °F 80% 30.27 in 10.0 mi Calm Calm - N/A   Clear
4:55 AM 26.6 °F - 21.2 °F 80% 30.27 in 10.0 mi Calm Calm - N/A   Clear
5:14 AM 26.6 °F - 21.2 °F 80% 30.27 in 10.0 mi Calm Calm - N/A   Clear
5:35 AM 26.6 °F - 21.2 °F 80% 30.27 in 10.0 mi Calm Calm - N/A   Clear
5:55 AM 24.8 °F - 21.2 °F 86% 30.28 in 10.0 mi Calm Calm - N/A   Clear
6:14 AM 24.8 °F - 19.4 °F 80% 30.27 in 10.0 mi Calm Calm - N/A   Clear
6:35 AM 24.8 °F - 19.4 °F 80% 30.27 in 10.0 mi Calm Calm - N/A   Clear
6:55 AM 24.8 °F - 19.4 °F 80% 30.27 in 10.0 mi Calm Calm - N/A   Clear
7:14 AM 24.8 °F - 19.4 °F 80% 30.27 in 10.0 mi Calm Calm - N/A   Clear
7:35 AM 24.8 °F - 19.4 °F 80% 30.28 in 10.0 mi Calm Calm - N/A   Clear
7:55 AM 24.8 °F - 19.4 °F 80% 30.27 in 10.0 mi Calm Calm - N/A   Clear
8:14 AM 24.8 °F - 21.2 °F 86% 30.28 in 10.0 mi Calm Calm - N/A   Clear
8:35 AM 26.6 °F - 23.0 °F 86% 30.28 in 10.0 mi Calm Calm - N/A   Clear
8:54 AM 28.4 °F - 24.8 °F 86% 30.28 in 10.0 mi Calm Calm - N/A   Clear
9:15 AM 32.0 °F - 26.6 °F 80% 30.29 in 7.0 mi Calm Calm - N/A   Clear
9:35 AM 33.8 °F - 24.8 °F 70% 30.29 in 10.0 mi Calm Calm - N/A   Clear
9:55 AM 35.6 °F - 21.2 °F 56% 30.29 in 10.0 mi Calm Calm - N/A   Clear
10:15 AM 37.4 °F - 19.4 °F 48% 30.30 in 10.0 mi Calm Calm - N/A   Clear
10:34 AM 39.2 °F - 21.2 °F 49% 30.30 in 10.0 mi Calm Calm - N/A   Clear
10:55 AM 41.0 °F - 21.2 °F 45% 30.30 in 10.0 mi Calm Calm - N/A   Clear
11:15 AM 41.0 °F - 21.2 °F 45% 30.30 in 10.0 mi Calm Calm - N/A   Clear
11:34 AM 42.8 °F - 19.4 °F 39% 30.30 in 10.0 mi Calm Calm - N/A   Clear
11:55 AM 44.6 °F - 19.4 °F 37% 30.29 in 10.0 mi Calm Calm - N/A   Clear
12:15 PM 44.6 °F 43.1 °F 17.6 °F 34% 30.29 in 10.0 mi NW 3.5 mph - N/A   Clear
12:55 PM 44.6 °F - 19.4 °F 37% 30.28 in 10.0 mi Calm Calm - N/A   Clear
1:14 PM 46.4 °F 43.5 °F 19.4 °F 34% 30.27 in 10.0 mi WNW 5.8 mph - N/A   Clear
1:35 PM 46.4 °F 43.5 °F 19.4 °F 34% 30.26 in 10.0 mi WNW 5.8 mph 18.4 mph N/A   Clear
1:55 PM 46.4 °F 41.9 °F 19.4 °F 34% 30.26 in 10.0 mi West 9.2 mph - N/A   Clear
2:14 PM 48.2 °F - 19.4 °F 32% 30.25 in 10.0 mi North 9.2 mph - N/A   Clear
2:35 PM 48.2 °F - 19.4 °F 32% 30.24 in 10.0 mi NNW 10.4 mph 17.3 mph N/A   Clear
2:54 PM 48.2 °F - 19.4 °F 32% 30.24 in 10.0 mi WSW 8.1 mph - N/A   Clear
3:15 PM 48.2 °F - 19.4 °F 32% 30.23 in 10.0 mi WNW 5.8 mph - N/A   Clear
3:35 PM 50.0 °F - 19.4 °F 30% 30.22 in 10.0 mi West 6.9 mph - N/A   Clear
3:54 PM 50.0 °F - 19.4 °F 30% 30.22 in 10.0 mi West 11.5 mph - N/A   Clear
4:15 PM 51.8 °F - 19.4 °F 28% 30.21 in 10.0 mi North 6.9 mph - N/A   Clear
4:35 PM 51.8 °F - 19.4 °F 28% 30.21 in 10.0 mi NNW 12.7 mph 19.6 mph N/A   Clear
4:54 PM 50.0 °F - 19.4 °F 30% 30.21 in 10.0 mi Calm Calm - N/A   Clear
5:15 PM 51.8 °F - 17.6 °F 26% 30.21 in 10.0 mi Calm Calm - N/A   Clear
5:35 PM 51.8 °F - 19.4 °F 28% 30.20 in 10.0 mi WNW 11.5 mph - N/A   Clear
5:54 PM 50.0 °F - 19.4 °F 30% 30.20 in 10.0 mi WNW 8.1 mph - N/A   Clear
6:15 PM 48.2 °F - 19.4 °F 32% 30.20 in 10.0 mi NW 6.9 mph - N/A   Clear
6:35 PM 48.2 °F - 19.4 °F 32% 30.21 in 10.0 mi NW 10.4 mph - N/A   Clear
6:54 PM 48.2 °F - 19.4 °F 32% 30.21 in 10.0 mi NW 6.9 mph - N/A   Clear
7:15 PM 46.4 °F 41.9 °F 19.4 °F 34% 30.21 in 10.0 mi NW 9.2 mph - N/A   Clear
7:35 PM 46.4 °F 41.9 °F 19.4 °F 34% 30.21 in 10.0 mi NNW 9.2 mph - N/A   Clear
7:54 PM 44.6 °F 41.4 °F 17.6 °F 34% 30.21 in 10.0 mi NW 5.8 mph - N/A   Clear
8:15 PM 42.8 °F - 19.4 °F 39% 30.22 in 10.0 mi Calm Calm - N/A   Clear
8:35 PM 41.0 °F 39.0 °F 17.6 °F 39% 30.22 in 10.0 mi NW 3.5 mph - N/A   Clear
8:54 PM 41.0 °F 38.0 °F 17.6 °F 39% 30.22 in 10.0 mi NW 4.6 mph - N/A   Clear
9:15 PM 39.2 °F 37.0 °F 19.4 °F 45% 30.23 in 10.0 mi NNW 3.5 mph - N/A   Clear
9:35 PM 39.2 °F 37.0 °F 17.6 °F 42% 30.23 in 10.0 mi NNW 3.5 mph - N/A   Clear
9:54 PM 37.4 °F 34.9 °F 17.6 °F 45% 30.23 in 10.0 mi NNW 3.5 mph - N/A   Clear
10:15 PM 37.4 °F - 17.6 °F 45% 30.23 in 10.0 mi Calm Calm - N/A   Clear
10:34 PM 35.6 °F - 17.6 °F 48% 30.23 in 10.0 mi Calm Calm - N/A   Clear
10:55 PM 33.8 °F - 19.4 °F 56% 30.23 in 10.0 mi Calm Calm - N/A   Clear
11:15 PM 33.8 °F - 19.4 °F 56% 30.23 in 10.0 mi Calm Calm - N/A   Clear
11:34 PM 33.8 °F - 17.6 °F 52% 30.23 in 10.0 mi Calm Calm - N/A   Clear
11:55 PM 30.2 °F - 19.4 °F 64% 30.23 in 10.0 mi Calm Calm - N/A   Clear